CDT,Max TemperatureF,Mean TemperatureF,Min TemperatureF,Max Dew PointF,MeanDew PointF,Min DewpointF,Max Humidity, Mean Humidity, Min Humidity, Max Sea Level PressureIn, Mean Sea Level PressureIn, Min Sea Level PressureIn, Max VisibilityMiles, Mean VisibilityMiles, Min VisibilityMiles, Max Wind SpeedMPH, Mean Wind SpeedMPH, Max Gust SpeedMPH,PrecipitationIn, CloudCover, Events, WindDirDegrees
2013-7-1,80,70,59,59,55,46,94,67,30,30.06,30.02,29.98,10,10,10,16,6,31,0.00,3,,334
2013-7-2,80,70,59,55,50,41,77,57,24,30.11,30.07,30.04,10,10,10,14,4,20,0.00,2,,328
2013-7-3,82,70,57,54,51,48,77,56,30,30.15,30.10,30.05,10,10,9,8,2,,0.00,3,Thunderstorm,142
2013-7-4,84,72,59,57,54,50,82,62,30,30.11,30.08,30.03,10,10,9,12,3,,0.00,3,,112
2013-7-5,84,72,59,66,57,54,88,64,35,30.10,30.04,30.00,10,10,2,16,4,29,0.00,1,Rain-Hail,142
2013-7-6,91,78,64,64,61,54,94,66,29,30.08,30.03,29.98,10,10,9,12,7,,0.00,1,,143
2013-7-7,93,80,66,66,62,55,94,64,28,30.10,30.06,30.03,10,10,10,14,5,22,0.00,1,,153
2013-7-8,93,82,71,68,64,59,83,60,32,30.15,30.11,30.07,10,10,10,13,6,,0.00,2,,168
2013-7-9,95,85,75,68,66,64,73,58,36,30.14,30.08,30.02,10,10,10,12,5,24,0.00,1,,200
2013-7-10,98,88,77,68,65,59,65,55,27,30.07,30.02,29.94,10,10,10,9,5,,0.00,2,,234
2013-7-11,95,84,73,72,64,54,94,63,28,30.06,30.03,29.98,10,10,10,8,3,,0.00,1,,46
2013-7-12,89,76,64,59,54,45,83,54,22,30.13,30.07,30.03,10,10,9,12,7,21,0.00,0,,108
2013-7-13,87,74,60,57,53,48,77,53,29,30.11,30.07,30.01,10,10,10,12,6,,0.00,2,,115
2013-7-14,86,74,62,59,57,52,88,61,31,30.13,30.07,30.04,10,10,10,14,7,20,0.00,2,,120
2013-7-15,89,78,68,68,65,59,94,78,40,30.23,30.17,30.11,10,10,9,14,7,16,0.00,3,,106
2013-7-16,89,78,68,73,70,68,100,91,49,30.33,30.27,30.22,10,8,0,12,5,18,0.00,2,Fog-Rain-Thunderstorm,122
2013-7-17,93,80,68,72,67,59,100,76,32,30.37,30.31,30.23,10,9,2,12,1,,0.00,2,,146
2013-7-18,95,82,69,68,65,61,88,64,32,30.27,30.18,30.07,10,10,10,9,4,,0.00,3,,138
2013-7-19,91,80,69,70,67,64,94,77,41,30.09,30.04,29.98,10,10,2,12,3,23,0.00,3,Rain-Thunderstorm,171
2013-7-20,93,81,69,68,67,66,94,77,41,30.01,29.98,29.91,10,10,10,21,3,30,0.00,5,Thunderstorm,249
2013-7-21,80,74,68,73,70,66,100,90,65,29.99,29.94,29.89,10,9,4,14,1,,0.00,4,,157
2013-7-22,84,75,66,73,69,61,100,85,55,29.97,29.92,29.89,10,8,3,14,4,23,0.20,4,Rain-Thunderstorm,207
2013-7-23,93,81,69,72,70,66,94,76,44,29.95,29.90,29.22,10,10,8,16,7,37,0.00,3,Rain-Thunderstorm,230
2013-7-24,84,76,68,70,68,63,100,81,55,30.06,29.98,29.84,10,10,8,15,6,37,0.01,4,Rain,288
2013-7-25,82,73,64,63,61,57,83,70,45,30.15,30.10,30.07,10,10,10,9,3,,0.00,5,,120
2013-7-26,71,68,66,68,65,63,100,90,73,30.10,30.06,30.03,10,7,0,12,4,,0.00,6,Fog-Rain,150
2013-7-27,77,70,62,66,62,54,100,83,44,30.09,30.04,30.01,10,7,0,9,2,,0.00,5,Fog,337
2013-7-28,75,68,60,64,61,57,94,86,57,30.11,30.07,30.03,10,10,5,9,1,,0.00,6,Rain,131
2013-7-29,84,75,66,72,67,63,100,83,58,30.14,30.09,30.06,10,10,0,15,6,26,0.00,5,Fog-Rain-Thunderstorm,136
2013-7-30,84,78,71,75,72,70,100,93,66,30.10,30.07,30.03,10,6,1,12,7,17,0.36,7,Rain-Thunderstorm,152
2013-7-31,86,78,71,75,72,68,100,87,58,30.10,30.07,30.03,10,8,2,10,1,18,0.00,5,Thunderstorm,339